This is the latest recevied weather packets stored in our database for station/object N4ASP-13. If no packets are shown the sender has not sent any weather packets the latest 1 day(s).
| Time | Temp. | Humidity | Pressure | Rain* | Wind** | Luminosity | Snow |
|---|---|---|---|---|---|---|---|
| 1778020794 | 21.11° C | 48% | 1013.8 hPa | 0 mm | - | 167 W/m² | - |
| 1778020426 | 21.11° C | 46% | 1013.8 hPa | 0 mm | - | 86 W/m² | - |
| 1778020305 | 21.11° C | 47% | 1013.8 hPa | 0 mm | - | 90 W/m² | - |
| 1778020061 | 21.11° C | 47% | 1013.9 hPa | 0 mm | - | 276 W/m² | - |
| 1778019752 | 21.11° C | 47% | 1013.8 hPa | 0 mm | - | 306 W/m² | - |
| 1778019566 | 21.11° C | 46% | 1013.8 hPa | 0 mm | - | 415 W/m² | - |
| 1778019508 | 21.11° C | 47% | 1013.8 hPa | 0 mm | - | 415 W/m² | - |
| 1778019383 | 21.11° C | 47% | 1013.7 hPa | 0 mm | - | 522 W/m² | - |
| 1778019319 | 21.11° C | 47% | 1013.7 hPa | 0 mm | - | 452 W/m² | - |
| 1778019198 | 21.11° C | 47% | 1013.7 hPa | 0 mm | - | 318 W/m² | - |
| 1778018827 | 21.11° C | 46% | 1013.8 hPa | 0 mm | - | 174 W/m² | - |
| 1778018700 | 21.11° C | 46% | 1013.8 hPa | 0 mm | - | 113 W/m² | - |
| 1778018461 | 21.67° C | 46% | 1013.9 hPa | 0 mm | - | 153 W/m² | - |
| 1778018277 | 21.67° C | 45% | 1013.9 hPa | 0 mm | - | 155 W/m² | - |
| 1778018155 | 21.67° C | 45% | 1013.9 hPa | 0 mm | - | 162 W/m² | - |
| 1778018088 | 21.67° C | 45% | 1013.8 hPa | 0 mm | - | 176 W/m² | - |
| 1778017904 | 21.67° C | 46% | 1014 hPa | 0 mm | - | 334 W/m² | - |
| 1778017845 | 21.67° C | 46% | 1014 hPa | 0 mm | - | 396 W/m² | - |
| 1778017778 | 21.67° C | 47% | 1014 hPa | 0 mm | - | 346 W/m² | - |
| 1778017659 | 21.67° C | 46% | 1013.9 hPa | 0 mm | - | 339 W/m² | - |
| 1778017353 | 21.67° C | 46% | 1014 hPa | 0 mm | - | 271 W/m² | - |
| 1778017167 | 21.67° C | 45% | 1013.9 hPa | 0 mm | - | 334 W/m² | - |
| 1778017106 | 22.22° C | 46% | 1013.9 hPa | 0 mm | - | 336 W/m² | - |
| 1778016737 | 22.22° C | 44% | 1013.9 hPa | 0 mm | - | 323 W/m² | - |
| 1778016551 | 22.22° C | 45% | 1014 hPa | 0 mm | - | 311 W/m² | - |
* Rain latest hour (hover to see other rain measurements)
** Current wind speed in m/s (hover to see current wind gust speed)